Regional Weather Roundup
Issued by NWS

Home | Current Version | Previous Version | Text Only | Print | Product List | Glossary On
Versions: 1 2 3 4 5 6 7 8 9 10 11 12 13 14 15 16 17 18 19 20 21 22 23 24 25 26 27 28 29 30 31 32 33 34 35 36 37 38 39 40 41 42 43 44 45 46 47 48 49 50
000
ASUS43 KFSD 191102
RWRSD

WEATHER ROUNDUP FOR SOUTH DAKOTA
NATIONAL WEATHER SERVICE SIOUX FALLS SD
500 AM CST SUN FEB 19 2017

NOTE: "FAIR" INDICATES FEW OR NO CLOUDS BELOW 12,000 FEET WITH NO
SIGNIFICANT WEATHER AND/OR OBSTRUCTIONS TO VISIBILITY.


SDZ001>005-009-010-012>017-191200-
NORTHWEST AND NORTH CENTRAL SOUTH DAKOTA

CITY           SKY/WX    TMP DP  RH WIND       PRES   REMARKS
BUFFALO          N/A     41  33  73 S8        29.47S
FAITH            N/A     39  33  79 S15       29.55F
MOBRIDGE       CLOUDY    39  31  72 SE13      29.60S
$$

SDZ012>016-024>037-041>051-057-063-072>074-191200-
SOUTHWEST AND SOUTH CENTRAL SOUTH DAKOTA

CITY           SKY/WX    TMP DP  RH WIND       PRES   REMARKS
RAPID CTY ARPT PTCLDY    39  30  70 SE5       29.57S
PIERRE         CLOUDY    40  32  73 SE8       29.63F
CUSTER         CLOUDY    40  26  57 SW5       29.62F
ELLSWORTH AFB  CLOUDY    39  31  71 S8        29.56S
PHILIP         CLOUDY    42  34  73 SE8       29.59F
PINE RIDGE     CLOUDY    44  34  67 VRB3      29.60S
SPEARFISH      FAIR      43  30  61 CALM      29.56S
WINNER         FAIR      52  37  56 S21       29.65F
$$

SDZ004>011-016>023-039-040-191200-
NORTHEAST SOUTH DAKOTA

CITY           SKY/WX    TMP DP  RH WIND       PRES   REMARKS
ABERDEEN       PTCLDY    39  33  79 S12       29.72R
WATERTOWN      CLOUDY    40  35  83 SE13      29.76S
BROOKINGS      CLEAR     39  35  86 SE12      29.79
SISSETON         N/A     35  34  96 S12       29.77S WCI  27
$$

SDZ017-020-022-023-036>040-048>070-191200-
SOUTHEAST SOUTH DAKOTA

CITY           SKY/WX    TMP DP  RH WIND       PRES   REMARKS
SIOUX FALLS    CLOUDY    40  36  86 SE5       29.81S
HURON          MOCLDY    39  34  82 SE10      29.73S
CHAMBERLAIN    CLOUDY    39  35  85 E7        29.68F
MITCHELL       CLEAR     37  33  85 SE9       29.75F
YANKTON        CLEAR     37  30  75 E7        29.77S
$$

ABBREVIATIONS USED IN REMARKS
   TC - TEMPERATURE IN CELSIUS
  WCI - WIND CHILL INDEX
   HX - HEAT INDEX
  VSB - VISIBILITY




USA.gov is the U.S. government's official web portal to all federal, state and local government web resources and services.